Regional Weather Roundup
Issued by NWS

Home | Current Version | Previous Version | Text Only | Print | Product List | Glossary Off
Versions: 1 2 3 4 5 6 7 8 9 10 11 12 13 14 15 16 17 18 19 20 21 22 23 24 25 26 27 28 29 30 31 32 33 34 35 36 37 38 39 40 41 42 43 44 45 46 47 48 49 50

000
ASUS43 KIND 290859
RWRIN

WEATHER ROUNDUP FOR INDIANA
NATIONAL WEATHER SERVICE INDIANAPOLIS IN
500 AM EDT SUN MAR 29 2015

NOTE: "FAIR" INDICATES FEW OR NO CLOUDS BELOW 12,000 FEET WITH NO
SIGNIFICANT WEATHER AND/OR OBSTRUCTIONS TO VISIBILITY.

* - STATION DOES NOT REPORT WEATHER SUCH AS PRECIPITATION OR FOG.

+ - STATION NOT QUALITY CONTROLLED BY THE NATIONAL WEATHER SERVICE.
    USE DATA WITH CAUTION...ESPECIALLY DEWPOINT AND RELATIVE
    HUMIDITY OBSERVATIONS.

INZ001>003-010>013-019-020-291000-
NORTHWEST INDIANA

CITY           SKY/WX    TMP DP  RH WIND       PRES   REMARKS

$$

LMZ046-743>745-291000-
SOUTHERN LAKE MICHIGAN

STATION/POSITION TIME  TEMP WIND        PRES
                       AIR  DIR/SP/G
                 (UTC) (F)  (DEG/KT/KT) (MB)
BURNS HARBOR     0800   28  190/ 10/ 16 1024.0F
MICHIGAN CITY    0800   27  150/ 10/ 14   N/A

$$

INZ004-005-014>016-021>024-291000-
NORTH CENTRAL INDIANA

CITY           SKY/WX    TMP DP  RH WIND       PRES   REMARKS
GOSHEN         CLEAR     25  15  66 S9        30.25F WCI  15
SOUTH BEND     CLEAR     23  13  65 S6        30.24F WCI  16

$$

INZ006>009-017-018-025>027-291000-
NORTHEAST INDIANA

CITY           SKY/WX    TMP DP  RH WIND       PRES   REMARKS
ANGOLA *+      CLEAR     18  14  86 CALM      30.25F
FORT WAYNE     CLEAR     23  16  74 S8        30.29F WCI  14

$$

INZ028-029-035-036-043>045-051>053-291000-
WEST CENTRAL INDIANA

CITY           SKY/WX    TMP DP  RH WIND       PRES   REMARKS
CRAWFORDSVL +  CLEAR     24  14  63 SE9       30.27F WCI  15
GREENCASTLE +  CLEAR     23  14  68 S6        30.29F WCI  16
LAFAYETTE      CLEAR     26  16  65 S6        30.26F WCI  19
TERRE HAUTE    CLEAR     27  18  69 SE8       30.28F WCI  19

$$

INZ030>032-037>040-046>048-054>057-064-065-291000-
CENTRAL INDIANA

CITY           SKY/WX    TMP DP  RH WIND       PRES   REMARKS
FRANKFORT +    CLEAR     24  19  81 SE7       30.28F WCI  16
GREENWOOD *+   CLEAR     25  14  63 SE8       30.30F WCI  16
INDIANAPOLIS   CLEAR     25  15  66 S9        30.28F WCI  15
-EAGLE CREEK   CLEAR     25  15  66 S5        30.29F WCI  19
KOKOMO *+        N/A     27  18  69 S9        30.28F WCI  17
MT COMFORT *+  CLEAR     25  10  54 SE7       30.30F WCI  17
SHELBYVILLE    CLEAR     26  17  68 SE7       30.30F WCI  18

$$

INZ033-034-041-042-049-050-058-059-291000-
EAST CENTRAL INDIANA

CITY           SKY/WX    TMP DP  RH WIND       PRES   REMARKS
MUNCIE         CLEAR     25  14  63 S7        30.30F WCI  17

$$

INZ060-061-067>069-081>083-085>088-291000-
SOUTHWEST INDIANA

CITY           SKY/WX    TMP DP  RH WIND       PRES   REMARKS
EVANSVILLE     CLEAR     28  21  75 CALM      30.31F
HUNTINGBURG *+ CLEAR     27  16  63 SE5       30.32F WCI  21

$$

INZ062-063-066-070>080-084-089>092-291000-
SOUTH CENTRAL AND SOUTHEAST INDIANA

CITY           SKY/WX    TMP DP  RH WIND       PRES   REMARKS
BLOOMINGTON    CLEAR     26  16  65 SE6       30.30F WCI  19
SEYMOUR +      CLEAR     23  18  80 S5        30.34F WCI  17

$$



USA.gov is the U.S. government's official web portal to all federal, state and local government web resources and services.